Flag for Italy Weather past 2 weeks in Bologna, Italy

Now
81 °F

Passing clouds.


Feels Like: 82 °F
Forecast: 67 / 75 °F
Wind: 7 mph from Northeast

Location: Bologna / Borgo Panigale

Current Time: Jul 23, 2014 at 12:24:46 PM

Latest Report: Jul 23, 2014 at 11:50 AM


Visibility: N/A

Pressure: 29.86 "Hg

Humidity: 54%

Dew point: 63 °F

Location of BolognaLocation

Historic Weather in Bologna — Graph

°F

Bologna temperature yesterday

Maximum temperature yesterday: 82 °F (at 4:20 PM)
Minimum temperature yesterday: 64 °F (at 12:20 AM)
Average temperature yesterday: 72 °F

Past Weeks' High & Low Weather Summary

 TemperatureHumidityPressure
High93 °F (Jul 19, 2:50 PM)100% (Jul 10, 6:50 AM)30.09 "Hg (Jul 10, 6:50 AM)
Low59 °F (Jul 10, 2:50 AM)26% (Jul 17, 6:20 PM)29.68 "Hg (Jul 8, 3:20 PM)
Average74 °F66%29.89 "Hg
* Reported Jul 8 10:20 AM — Jul 23 10:50 AM, Bologna, Weather by CustomWeather, © 2014

Note: Actual official high and low records may vary slightly from our data, if they occured in-between our weather recording intervals... More about our weather records

Advertising

Bologna weather history for previous 24 hours

 ConditionsComfort  
Time TempWeatherWind HumidityBarometerVisibility
10:50 AM
Jul 23
77 °FPassing clouds.3 mph69%29.86 "HgN/A
7:20 AM70 °FScattered clouds.5 mph83%29.83 "HgN/A
6:50 AM70 °FPassing clouds.5 mph83%29.83 "HgN/A
6:20 AM70 °FPassing clouds.3 mph88%29.83 "HgN/A
5:50 AM70 °FPassing clouds.6 mph83%29.83 "HgN/A
5:20 AM68 °FPassing clouds.3 mph94%29.83 "HgN/A
4:50 AM70 °FPassing clouds.3 mph88%29.83 "HgN/A
4:20 AM70 °FPassing clouds.1 mph88%29.83 "HgN/A
3:50 AM70 °FPassing clouds.2 mph88%29.83 "HgN/A
3:20 AM70 °FPassing clouds.3 mph88%29.80 "HgN/A
2:50 AM70 °FPassing clouds.2 mph88%29.83 "HgN/A
2:20 AM70 °FPassing clouds.3 mph88%29.83 "HgN/A
1:50 AM70 °FPassing clouds.2 mph88%29.83 "HgN/A
6:50 PM
Jul 22
81 °FPassing clouds.5 mph51%29.77 "HgN/A
6:20 PM81 °FPassing clouds.5 mph51%29.77 "HgN/A
5:50 PM82 °FPassing clouds.3 mph45%29.77 "HgN/A
5:20 PM82 °FPassing clouds.3 mph45%29.77 "HgN/A
4:50 PM82 °FPassing clouds.3 mph45%29.77 "HgN/A
4:20 PM82 °FPassing clouds.3 mph45%29.77 "HgN/A
3:50 PM81 °FPassing clouds.6 mph45%29.77 "HgN/A
3:20 PM81 °FPassing clouds.3 mph51%29.77 "HgN/A
2:50 PM79 °FPassing clouds.5 mph58%29.77 "HgN/A
2:20 PM79 °FPassing clouds.5 mph58%29.80 "HgN/A
1:50 PM79 °FPassing clouds.6 mph58%29.77 "HgN/A
1:20 PM77 °FPassing clouds.5 mph61%29.80 "HgN/A
12:50 PM77 °FPassing clouds.5 mph65%29.80 "HgN/A
12:20 PM75 °FScattered clouds.5 mph61%29.80 "HgN/A
Weather by CustomWeather, © 2014

See weather overviewHow to use our weather pages